| time (UTC) | temp F | wind direction | speed MPH | gust MPH | rain 1hr in | rain 24hr in | rain mn in | humidity % | barometer mb |
| 20260505211720 | 66 | 112 | 0.0 | 0.0 | 0.00 | 0.00 | 0.00 | 67 | 1020.5 |
| 20260505211218 | 66 | 117 | 0.0 | 0.0 | 0.00 | 0.00 | 0.00 | 67 | 1020.5 |
| 20260505210714 | 65 | 90 | 0.0 | 0.0 | 0.00 | 0.00 | 0.00 | 68 | 1020.7 |
| 20260505210211 | 65 | 170 | 0.0 | 1.0 | 0.00 | 0.00 | 0.00 | 69 | 1020.6 |
| 20260505205708 | 65 | 124 | 0.0 | 0.0 | 0.00 | 0.00 | 0.00 | 69 | 1020.7 |
| 20260505205207 | 65 | 190 | 1.0 | 2.0 | 0.00 | 0.00 | 0.00 | 67 | 1021.0 |
| 20260505204702 | 66 | 183 | 0.0 | 0.0 | 0.00 | 0.00 | 0.00 | 68 | 1020.8 |
| 20260505204201 | 64 | 73 | 0.0 | 0.0 | 0.00 | 0.00 | 0.00 | 69 | 1020.5 |
| 20260505203658 | 63 | 144 | 0.0 | 0.0 | 0.00 | 0.00 | 0.00 | 70 | 1020.8 |
| 20260505203154 | 64 | 227 | 3.0 | 3.0 | 0.00 | 0.00 | 0.00 | 70 | 1020.9 |
| 20260505202650 | 64 | 122 | 0.0 | 1.0 | 0.00 | 0.00 | 0.00 | 71 | 1020.9 |
| 20260505202146 | 63 | 21 | 1.0 | 1.0 | 0.00 | 0.00 | 0.00 | 70 | 1020.9 |
| 20260505201643 | 64 | 92 | 0.0 | 0.0 | 0.00 | 0.00 | 0.00 | 69 | 1021.1 |
| 20260505201141 | 63 | 157 | 0.0 | 0.0 | 0.00 | 0.00 | 0.00 | 72 | 1021.0 |
| 20260505200639 | 63 | 248 | 1.0 | 1.0 | 0.00 | 0.00 | 0.00 | 72 | 1021.1 |
| 20260505200135 | 62 | 223 | 1.0 | 2.0 | 0.00 | 0.00 | 0.00 | 71 | 1021.2 |
| 20260505195632 | 63 | 248 | 3.0 | 3.0 | 0.00 | 0.00 | 0.00 | 70 | 1021.0 |
| 20260505195129 | 63 | 124 | 1.0 | 2.0 | 0.00 | 0.00 | 0.00 | 70 | 1021.1 |
| 20260505194626 | 63 | 148 | 1.0 | 1.0 | 0.00 | 0.00 | 0.00 | 71 | 1021.0 |
| 20260505194122 | 63 | 38 | 2.0 | 2.0 | 0.00 | 0.00 | 0.00 | 70 | 1021.1 |
| 20260505193619 | 62 | 92 | 0.0 | 1.0 | 0.00 | 0.00 | 0.00 | 71 | 1021.2 |
| 20260505193116 | 62 | 316 | 1.0 | 2.0 | 0.00 | 0.00 | 0.00 | 72 | 1021.3 |
| 20260505192615 | 63 | 133 | 0.0 | 0.0 | 0.00 | 0.00 | 0.00 | 72 | 1021.2 |
| 20260505192111 | 63 | 102 | 0.0 | 0.0 | 0.00 | 0.00 | 0.00 | 71 | 1021.2 |
| 20260505191610 | 63 | 92 | 0.0 | 0.0 | 0.00 | 0.00 | 0.00 | 70 | 1021.1 |
| 20260505191107 | 63 | 153 | 1.0 | 1.0 | 0.00 | 0.00 | 0.00 | 72 | 1021.2 |
| 20260505190602 | 62 | 176 | 1.0 | 2.0 | 0.00 | 0.00 | 0.00 | 72 | 1021.3 |
| 20260505190058 | 62 | 242 | 0.0 | 1.0 | 0.00 | 0.00 | 0.00 | 72 | 1021.3 |
| 20260505185555 | 62 | 46 | 1.0 | 2.0 | 0.00 | 0.00 | 0.00 | 71 | 1021.2 |
| 20260505185051 | 62 | 82 | 0.0 | 0.0 | 0.00 | 0.00 | 0.00 | 72 | 1021.2 |
| 20260505184548 | 61 | 47 | 0.0 | 1.0 | 0.00 | 0.00 | 0.00 | 73 | 1021.1 |
| 20260505184045 | 62 | 105 | 0.0 | 0.0 | 0.00 | 0.00 | 0.00 | 72 | 1021.3 |
| 20260505183541 | 63 | 110 | 0.0 | 1.0 | 0.00 | 0.00 | 0.00 | 71 | 1021.1 |
| 20260505183039 | 62 | 96 | 0.0 | 1.0 | 0.00 | 0.00 | 0.00 | 72 | 1021.0 |
| 20260505182535 | 62 | 185 | 0.0 | 1.0 | 0.00 | 0.00 | 0.00 | 72 | 1021.3 |
| 20260505182032 | 62 | 130 | 0.0 | 0.0 | 0.00 | 0.00 | 0.00 | 72 | 1021.0 |
| 20260505181529 | 63 | 68 | 0.0 | 0.0 | 0.00 | 0.00 | 0.00 | 73 | 1020.8 |
| 20260505181026 | 62 | 75 | 0.0 | 0.0 | 0.00 | 0.00 | 0.00 | 72 | 1021.1 |
| 20260505180522 | 62 | 51 | 1.0 | 1.0 | 0.00 | 0.00 | 0.00 | 73 | 1021.2 |
| 20260505180021 | 61 | 121 | 0.0 | 1.0 | 0.00 | 0.00 | 0.00 | 75 | 1020.9 |
| 20260505175514 | 60 | 95 | 0.0 | 1.0 | 0.00 | 0.00 | 0.00 | 76 | 1021.0 |
| 20260505175012 | 60 | 60 | 1.0 | 1.0 | 0.00 | 0.00 | 0.00 | 75 | 1021.2 |
| 20260505174509 | 59 | 64 | 0.0 | 0.0 | 0.00 | 0.00 | 0.00 | 77 | 1021.1 |
| 20260505174004 | 59 | 244 | 1.0 | 2.0 | 0.00 | 0.00 | 0.00 | 79 | 1021.0 |
| 20260505173501 | 59 | 200 | 0.0 | 0.0 | 0.00 | 0.00 | 0.00 | 78 | 1021.2 |
| 20260505172958 | 59 | 93 | 0.0 | 0.0 | 0.00 | 0.00 | 0.00 | 78 | 1021.3 |
| 20260505172457 | 59 | 218 | 0.0 | 1.0 | 0.00 | 0.00 | 0.00 | 78 | 1021.1 |
| 20260505171956 | 59 | 95 | 0.0 | 0.0 | 0.00 | 0.00 | 0.00 | 78 | 1020.9 |
| 20260505171453 | 59 | 183 | 0.0 | 1.0 | 0.00 | 0.00 | 0.00 | 78 | 1020.8 |
| 20260505170950 | 58 | 50 | 0.0 | 1.0 | 0.00 | 0.00 | 0.00 | 79 | 1020.9 |
| 20260505170447 | 58 | 70 | 1.0 | 1.0 | 0.00 | 0.00 | 0.00 | 80 | 1020.8 |
| 20260505165942 | 58 | 116 | 0.0 | 0.0 | 0.00 | 0.00 | 0.00 | 79 | 1021.0 |
| 20260505165438 | 58 | 73 | 0.0 | 0.0 | 0.00 | 0.00 | 0.00 | 79 | 1020.7 |
| 20260505164934 | 58 | 187 | 1.0 | 1.0 | 0.00 | 0.00 | 0.00 | 81 | 1020.9 |
| 20260505164431 | 58 | 167 | 0.0 | 1.0 | 0.00 | 0.00 | 0.00 | 80 | 1021.0 |
| 20260505163928 | 58 | 87 | 0.0 | 0.0 | 0.00 | 0.00 | 0.00 | 81 | 1020.8 |
| 20260505163427 | 57 | 204 | 1.0 | 1.0 | 0.00 | 0.00 | 0.00 | 81 | 1020.8 |
| 20260505162926 | 57 | 65 | 0.0 | 0.0 | 0.00 | 0.00 | 0.00 | 82 | 1020.8 |
| 20260505162421 | 56 | 126 | 0.0 | 0.0 | 0.00 | 0.00 | 0.00 | 83 | 1020.8 |
| 20260505161918 | 57 | 139 | 0.0 | 0.0 | 0.00 | 0.00 | 0.00 | 83 | 1020.6 |
| 20260505161415 | 56 | 50 | 0.0 | 0.0 | 0.00 | 0.00 | 0.00 | 83 | 1020.9 |
| 20260505160912 | 56 | 103 | 0.0 | 0.0 | 0.00 | 0.00 | 0.00 | 85 | 1020.5 |
| 20260505160410 | 56 | 232 | 1.0 | 2.0 | 0.00 | 0.00 | 0.00 | 84 | 1020.7 |
| 20260505153349 | 56 | 77 | 0.0 | 0.0 | 0.00 | 0.00 | 0.00 | 85 | 1020.8 |
| 20260505152846 | 56 | 42 | 0.0 | 0.0 | 0.00 | 0.00 | 0.00 | 86 | 1020.6 |
| 20260505152344 | 55 | 54 | 1.0 | 1.0 | 0.00 | 0.00 | 0.00 | 86 | 1020.6 |
| 20260505151843 | 55 | 84 | 0.0 | 0.0 | 0.00 | 0.00 | 0.00 | 86 | 1020.5 |
| 20260505151340 | 55 | 100 | 0.0 | 0.0 | 0.00 | 0.00 | 0.00 | 87 | 1020.6 |
| 20260505150837 | 55 | 90 | 0.0 | 0.0 | 0.00 | 0.00 | 0.00 | 87 | 1020.4 |
| 20260505150335 | 55 | 85 | 0.0 | 0.0 | 0.00 | 0.00 | 0.00 | 87 | 1020.5 |
| 20260505140258 | 54 | 131 | 0.0 | 0.0 | 0.00 | 0.00 | 0.00 | 89 | 1019.9 |
| 20260505130222 | 53 | 115 | 0.0 | 0.0 | 0.00 | 0.00 | 0.00 | 90 | 1019.9 |
| 20260505124712 | 53 | 138 | 0.0 | 0.0 | 0.00 | 0.00 | 0.00 | 90 | 1019.6 |
| 20260505124209 | 53 | 139 | 0.0 | 0.0 | 0.00 | 0.00 | 0.00 | 91 | 1019.5 |
| 20260505123705 | 53 | 139 | 0.0 | 0.0 | 0.00 | 0.00 | 0.00 | 91 | 1019.6 |
| 20260505123202 | 53 | 139 | 0.0 | 0.0 | 0.00 | 0.00 | 0.00 | 92 | 1019.6 |
| 20260505122658 | 53 | 139 | 0.0 | 0.0 | 0.00 | 0.00 | 0.00 | 92 | 1019.5 |
| 20260505122155 | 53 | 139 | 0.0 | 0.0 | 0.00 | 0.00 | 0.00 | 92 | 1019.6 |
| 20260505121652 | 53 | 139 | 0.0 | 0.0 | 0.00 | 0.00 | 0.00 | 92 | 1019.5 |
| 20260505121149 | 53 | 139 | 0.0 | 0.0 | 0.00 | 0.00 | 0.00 | 92 | 1019.6 |
| 20260505120645 | 53 | 139 | 0.0 | 0.0 | 0.00 | 0.00 | 0.00 | 92 | 1019.3 |
| 20260505120141 | 53 | 139 | 0.0 | 0.0 | 0.00 | 0.00 | 0.00 | 92 | 1019.5 |
| 20260505115635 | 53 | 131 | 0.0 | 0.0 | 0.00 | 0.00 | 0.00 | 93 | 1019.4 |
| 20260505115133 | 52 | 131 | 0.0 | 0.0 | 0.00 | 0.00 | 0.00 | 93 | 1019.5 |
| 20260505114630 | 52 | 130 | 0.0 | 0.0 | 0.00 | 0.00 | 0.00 | 93 | 1019.5 |
| 20260505114126 | 52 | 130 | 0.0 | 0.0 | 0.00 | 0.00 | 0.00 | 93 | 1019.4 |
| 20260505113623 | 52 | 130 | 0.0 | 0.0 | 0.00 | 0.00 | 0.00 | 93 | 1019.4 |
| 20260505113119 | 52 | 130 | 0.0 | 0.0 | 0.00 | 0.00 | 0.00 | 93 | 1019.1 |
| 20260505112615 | 52 | 130 | 0.0 | 0.0 | 0.00 | 0.00 | 0.00 | 93 | 1019.6 |
| 20260505112114 | 52 | 131 | 0.0 | 0.0 | 0.00 | 0.00 | 0.00 | 93 | 1019.3 |
| 20260505111613 | 52 | 126 | 0.0 | 0.0 | 0.00 | 0.00 | 0.00 | 94 | 1019.4 |
| 20260505111109 | 51 | 126 | 0.0 | 0.0 | 0.00 | 0.00 | 0.00 | 94 | 1019.3 |
| 20260505110606 | 51 | 126 | 0.0 | 0.0 | 0.00 | 0.00 | 0.00 | 94 | 1019.3 |
| 20260505102039 | 51 | 116 | 0.0 | 0.0 | 0.00 | 0.00 | 0.00 | 94 | 1019.1 |
| 20260505101537 | 51 | 116 | 0.0 | 0.0 | 0.00 | 0.00 | 0.00 | 94 | 1018.9 |
| 20260505101033 | 50 | 115 | 0.0 | 0.0 | 0.00 | 0.00 | 0.00 | 94 | 1018.9 |
| 20260505100530 | 50 | 114 | 0.0 | 0.0 | 0.00 | 0.00 | 0.00 | 94 | 1018.8 |
| 20260505100027 | 50 | 107 | 0.0 | 0.0 | 0.00 | 0.00 | 0.00 | 93 | 1019.0 |
| 20260505095523 | 50 | 107 | 0.0 | 0.0 | 0.00 | 0.00 | 0.00 | 93 | 1019.1 |
| 20260505095020 | 50 | 102 | 0.0 | 0.0 | 0.00 | 0.00 | 0.00 | 93 | 1019.0 |
| 20260505094516 | 51 | 123 | 0.0 | 0.0 | 0.00 | 0.00 | 0.00 | 93 | 1018.8 |
| 20260505094012 | 51 | 123 | 0.0 | 0.0 | 0.00 | 0.00 | 0.00 | 93 | 1018.9 |
| 20260505093509 | 51 | 119 | 0.0 | 0.0 | 0.00 | 0.00 | 0.00 | 93 | 1018.7 |
| 20260505093007 | 51 | 119 | 0.0 | 0.0 | 0.00 | 0.00 | 0.00 | 92 | 1018.7 |
| 20260505092504 | 51 | 119 | 0.0 | 0.0 | 0.00 | 0.00 | 0.00 | 92 | 1018.6 |
| 20260505092001 | 51 | 118 | 0.0 | 0.0 | 0.00 | 0.00 | 0.00 | 92 | 1018.7 |
| 20260505091459 | 51 | 119 | 0.0 | 0.0 | 0.00 | 0.00 | 0.00 | 91 | 1018.7 |
| 20260505090957 | 52 | 99 | 0.0 | 0.0 | 0.00 | 0.00 | 0.00 | 91 | 1018.9 |
| 20260505090454 | 52 | 101 | 0.0 | 0.0 | 0.00 | 0.00 | 0.00 | 91 | 1018.5 |
| 20260505085952 | 52 | 98 | 0.0 | 0.0 | 0.00 | 0.00 | 0.00 | 91 | 1018.6 |
| 20260505085449 | 52 | 101 | 0.0 | 0.0 | 0.00 | 0.00 | 0.00 | 91 | 1018.5 |
| 20260505084948 | 52 | 108 | 0.0 | 0.0 | 0.00 | 0.00 | 0.00 | 91 | 1018.6 |
| 20260505084446 | 52 | 105 | 0.0 | 0.0 | 0.00 | 0.00 | 0.00 | 90 | 1018.5 |
| 20260505083943 | 52 | 102 | 0.0 | 0.0 | 0.00 | 0.00 | 0.00 | 90 | 1018.5 |
| 20260505083440 | 52 | 87 | 0.0 | 0.0 | 0.00 | 0.00 | 0.00 | 90 | 1018.6 |
| 20260505082936 | 52 | 86 | 0.0 | 0.0 | 0.00 | 0.00 | 0.00 | 90 | 1018.7 |
| 20260505082432 | 53 | 60 | 0.0 | 1.0 | 0.00 | 0.00 | 0.00 | 90 | 1018.5 |
| 20260505081930 | 53 | 66 | 0.0 | 1.0 | 0.00 | 0.00 | 0.00 | 90 | 1018.3 |
| 20260505081426 | 53 | 52 | 0.0 | 1.0 | 0.00 | 0.00 | 0.00 | 90 | 1018.3 |
| 20260505080923 | 53 | 64 | 1.0 | 1.0 | 0.00 | 0.00 | 0.00 | 89 | 1018.4 |
| 20260505080419 | 53 | 80 | 0.0 | 0.0 | 0.00 | 0.00 | 0.00 | 89 | 1018.2 |
| 20260505075914 | 53 | 63 | 0.0 | 0.0 | 0.00 | 0.00 | 0.00 | 89 | 1018.4 |
| 20260505075411 | 53 | 94 | 0.0 | 0.0 | 0.00 | 0.00 | 0.00 | 89 | 1018.2 |
| 20260505074909 | 53 | 81 | 0.0 | 0.0 | 0.00 | 0.00 | 0.00 | 88 | 1018.2 |
| 20260505074406 | 54 | 53 | 0.0 | 1.0 | 0.00 | 0.00 | 0.00 | 87 | 1018.1 |
| 20260505073903 | 54 | 82 | 0.0 | 0.0 | 0.00 | 0.00 | 0.00 | 87 | 1017.9 |
| 20260505073401 | 54 | 65 | 0.0 | 0.0 | 0.00 | 0.00 | 0.00 | 87 | 1018.2 |
| 20260505072858 | 54 | 87 | 0.0 | 0.0 | 0.00 | 0.00 | 0.00 | 87 | 1018.0 |
| 20260505072354 | 54 | 85 | 0.0 | 0.0 | 0.00 | 0.00 | 0.00 | 86 | 1017.8 |
| 20260505071850 | 54 | 92 | 0.0 | 0.0 | 0.00 | 0.00 | 0.00 | 86 | 1017.7 |
| 20260505071346 | 55 | 67 | 0.0 | 1.0 | 0.00 | 0.00 | 0.00 | 86 | 1017.8 |
| 20260505070845 | 54 | 99 | 0.0 | 0.0 | 0.00 | 0.00 | 0.00 | 86 | 1017.9 |
| 20260505070341 | 55 | 121 | 0.0 | 0.0 | 0.00 | 0.00 | 0.00 | 86 | 1017.9 |
| 20260505065836 | 55 | 86 | 0.0 | 0.0 | 0.00 | 0.00 | 0.00 | 85 | 1017.7 |
| 20260505065333 | 55 | 90 | 0.0 | 1.0 | 0.00 | 0.00 | 0.00 | 85 | 1017.6 |
| 20260505064830 | 55 | 110 | 0.0 | 0.0 | 0.00 | 0.00 | 0.00 | 85 | 1017.8 |
| 20260505064327 | 55 | 86 | 0.0 | 0.0 | 0.00 | 0.00 | 0.00 | 85 | 1017.5 |
| 20260505063826 | 55 | 116 | 0.0 | 0.0 | 0.00 | 0.00 | 0.00 | 85 | 1017.3 |
| 20260505063321 | 55 | 140 | 0.0 | 0.0 | 0.00 | 0.00 | 0.00 | 84 | 1017.3 |
| 20260505062818 | 56 | 95 | 0.0 | 0.0 | 0.00 | 0.00 | 0.00 | 84 | 1017.2 |
| 20260505062316 | 56 | 75 | 0.0 | 0.0 | 0.00 | 0.00 | 0.00 | 84 | 1017.3 |
| 20260505061812 | 56 | 72 | 1.0 | 1.0 | 0.00 | 0.00 | 0.00 | 83 | 1017.4 |
| 20260505061310 | 56 | 86 | 0.0 | 0.0 | 0.00 | 0.00 | 0.00 | 83 | 1017.5 |
| 20260505060807 | 56 | 92 | 0.0 | 0.0 | 0.00 | 0.00 | 0.00 | 83 | 1017.2 |
| 20260505060304 | 56 | 84 | 0.0 | 0.0 | 0.00 | 0.00 | 0.00 | 83 | 1017.3 |
| 20260505055800 | 57 | 84 | 0.0 | 0.0 | 0.00 | 0.00 | 0.00 | 83 | 1017.3 |
| 20260505055256 | 57 | 56 | 0.0 | 0.0 | 0.00 | 0.00 | 0.00 | 83 | 1017.2 |
| 20260505054754 | 57 | 55 | 0.0 | 0.0 | 0.00 | 0.00 | 0.00 | 83 | 1017.0 |
| 20260505054251 | 57 | 69 | 0.0 | 0.0 | 0.00 | 0.00 | 0.00 | 82 | 1017.1 |
| 20260505053749 | 57 | 79 | 0.0 | 0.0 | 0.00 | 0.00 | 0.00 | 82 | 1017.0 |
| 20260505053245 | 58 | 45 | 0.0 | 0.0 | 0.00 | 0.00 | 0.00 | 81 | 1017.0 |
| 20260505052743 | 58 | 74 | 0.0 | 0.0 | 0.00 | 0.00 | 0.00 | 81 | 1017.0 |
| 20260505052240 | 58 | 42 | 0.0 | 1.0 | 0.00 | 0.00 | 0.00 | 81 | 1017.0 |
| 20260505051736 | 58 | 56 | 0.0 | 0.0 | 0.00 | 0.00 | 0.00 | 80 | 1016.8 |
| 20260505051234 | 58 | 73 | 0.0 | 0.0 | 0.00 | 0.00 | 0.00 | 80 | 1016.8 |
| 20260505050732 | 59 | 64 | 1.0 | 1.0 | 0.00 | 0.00 | 0.00 | 80 | 1016.7 |
| 20260505050230 | 59 | 82 | 0.0 | 0.0 | 0.00 | 0.00 | 0.00 | 80 | 1016.6 |
| 20260505041700 | 62 | 89 | 0.0 | 1.0 | 0.00 | 0.00 | 0.00 | 76 | 1015.9 |
| 20260505041157 | 62 | 77 | 0.0 | 0.0 | 0.00 | 0.00 | 0.00 | 75 | 1016.0 |
| 20260505040654 | 63 | 104 | 0.0 | 1.0 | 0.00 | 0.00 | 0.00 | 75 | 1015.8 |
| 20260505040152 | 63 | 120 | 0.0 | 0.0 | 0.00 | 0.00 | 0.00 | 75 | 1015.6 |
| 20260505035648 | 64 | 198 | 0.0 | 1.0 | 0.00 | 0.00 | 0.00 | 74 | 1015.6 |
| 20260505035144 | 64 | 83 | 0.0 | 1.0 | 0.00 | 0.00 | 0.00 | 73 | 1015.5 |
| 20260505034641 | 64 | 80 | 0.0 | 0.0 | 0.00 | 0.00 | 0.00 | 73 | 1015.5 |
| 20260505034138 | 65 | 82 | 0.0 | 0.0 | 0.00 | 0.00 | 0.00 | 72 | 1015.3 |
| 20260505033634 | 65 | 85 | 0.0 | 0.0 | 0.00 | 0.00 | 0.00 | 72 | 1015.3 |
| 20260505033133 | 65 | 51 | 0.0 | 1.0 | 0.00 | 0.00 | 0.00 | 72 | 1015.3 |
| 20260505032631 | 66 | 96 | 0.0 | 0.0 | 0.00 | 0.00 | 0.00 | 72 | 1015.2 |
| 20260505032126 | 66 | 88 | 0.0 | 1.0 | 0.00 | 0.00 | 0.00 | 70 | 1015.2 |
| 20260505031624 | 66 | 73 | 0.0 | 0.0 | 0.00 | 0.00 | 0.00 | 70 | 1015.2 |
| 20260505031120 | 67 | 86 | 0.0 | 0.0 | 0.00 | 0.00 | 0.00 | 70 | 1015.1 |
| 20260505030617 | 67 | 91 | 0.0 | 0.0 | 0.00 | 0.00 | 0.00 | 70 | 1015.2 |
| 20260505030113 | 67 | 74 | 1.0 | 1.0 | 0.00 | 0.00 | 0.00 | 70 | 1014.9 |
| 20260505025609 | 68 | 92 | 0.0 | 0.0 | 0.00 | 0.00 | 0.00 | 69 | 1014.8 |
| 20260505025108 | 68 | 98 | 0.0 | 0.0 | 0.00 | 0.00 | 0.00 | 69 | 1014.6 |
| 20260505024605 | 68 | 106 | 0.0 | 0.0 | 0.00 | 0.00 | 0.00 | 69 | 1014.7 |
| 20260505024102 | 69 | 74 | 1.0 | 1.0 | 0.00 | 0.00 | 0.00 | 68 | 1014.7 |
| 20260505023559 | 69 | 58 | 1.0 | 1.0 | 0.00 | 0.00 | 0.00 | 67 | 1014.7 |
| 20260505023057 | 69 | 94 | 0.0 | 1.0 | 0.00 | 0.00 | 0.00 | 67 | 1014.7 |
| 20260505022554 | 69 | 169 | 0.0 | 1.0 | 0.00 | 0.00 | 0.00 | 67 | 1014.8 |
| 20260505022051 | 70 | 147 | 0.0 | 0.0 | 0.00 | 0.00 | 0.00 | 67 | 1014.6 |
| 20260505021547 | 70 | 201 | 0.0 | 1.0 | 0.00 | 0.00 | 0.00 | 67 | 1014.7 |
| 20260505021044 | 70 | 35 | 1.0 | 1.0 | 0.00 | 0.00 | 0.00 | 65 | 1014.7 |
| 20260505020544 | 71 | 126 | 0.0 | 1.0 | 0.00 | 0.00 | 0.00 | 67 | 1014.4 |
| 20260505020041 | 72 | 99 | 0.0 | 0.0 | 0.00 | 0.00 | 0.00 | 65 | 1014.7 |
| 20260505015538 | 72 | 208 | 1.0 | 1.0 | 0.00 | 0.00 | 0.00 | 65 | 1014.5 |
| 20260505015035 | 72 | 84 | 0.0 | 0.0 | 0.00 | 0.00 | 0.00 | 65 | 1014.6 |
| 20260505014532 | 72 | 228 | 2.0 | 2.0 | 0.00 | 0.00 | 0.00 | 65 | 1014.4 |
| 20260505014029 | 72 | 87 | 1.0 | 1.0 | 0.00 | 0.00 | 0.00 | 64 | 1014.4 |
| 20260505013526 | 73 | 195 | 0.0 | 0.0 | 0.00 | 0.00 | 0.00 | 63 | 1014.7 |
| 20260505013023 | 73 | 34 | 1.0 | 2.0 | 0.00 | 0.00 | 0.00 | 63 | 1014.7 |
| 20260505012522 | 73 | 54 | 0.0 | 0.0 | 0.00 | 0.00 | 0.00 | 63 | 1014.6 |
| 20260505012018 | 73 | 75 | 0.0 | 0.0 | 0.00 | 0.00 | 0.00 | 62 | 1014.8 |
| 20260505011514 | 73 | 73 | 0.0 | 0.0 | 0.00 | 0.00 | 0.00 | 62 | 1014.8 |
| 20260505011011 | 73 | 153 | 1.0 | 1.0 | 0.00 | 0.00 | 0.00 | 63 | 1014.9 |
| 20260505010506 | 74 | 237 | 3.0 | 3.0 | 0.00 | 0.00 | 0.00 | 62 | 1015.0 |
| 20260505010003 | 75 | 103 | 0.0 | 0.0 | 0.00 | 0.00 | 0.00 | 61 | 1014.8 |
| 20260505005459 | 75 | 132 | 0.0 | 1.0 | 0.00 | 0.00 | 0.00 | 60 | 1015.0 |
| 20260505004957 | 75 | 237 | 0.0 | 1.0 | 0.00 | 0.00 | 0.00 | 60 | 1015.0 |
| 20260505004454 | 75 | 107 | 1.0 | 2.0 | 0.00 | 0.00 | 0.00 | 60 | 1015.1 |
| 20260505003951 | 75 | 133 | 1.0 | 1.0 | 0.00 | 0.00 | 0.00 | 60 | 1015.0 |
| 20260505003448 | 75 | 68 | 1.0 | 2.0 | 0.00 | 0.00 | 0.00 | 59 | 1015.1 |
| 20260505002944 | 75 | 70 | 0.0 | 0.0 | 0.00 | 0.00 | 0.00 | 58 | 1015.2 |
| 20260505002440 | 75 | 93 | 0.0 | 0.0 | 0.00 | 0.00 | 0.00 | 59 | 1015.2 |
| 20260505001939 | 75 | 41 | 2.0 | 3.0 | 0.00 | 0.00 | 0.00 | 59 | 1015.1 |
| 20260505001436 | 76 | 82 | 1.0 | 1.0 | 0.00 | 0.00 | 0.00 | 59 | 1015.1 |
| 20260505000933 | 75 | 242 | 2.0 | 3.0 | 0.00 | 0.00 | 0.00 | 59 | 1015.1 |
| 20260505000431 | 75 | 68 | 2.0 | 3.0 | 0.00 | 0.00 | 0.00 | 59 | 1015.1 |
| 20260504235927 | 75 | 70 | 0.0 | 1.0 | 0.00 | 0.00 | 0.00 | 59 | 1015.2 |
| 20260504235425 | 75 | 119 | 0.0 | 0.0 | 0.00 | 0.00 | 0.00 | 59 | 1015.2 |
| 20260504234921 | 75 | 38 | 1.0 | 1.0 | 0.00 | 0.00 | 0.00 | 59 | 1015.5 |
| 20260504234419 | 75 | 104 | 0.0 | 1.0 | 0.00 | 0.00 | 0.00 | 58 | 1015.2 |
| 20260504233915 | 75 | 123 | 0.0 | 1.0 | 0.00 | 0.00 | 0.00 | 58 | 1015.4 |
| 20260504233411 | 75 | 287 | 0.0 | 1.0 | 0.00 | 0.00 | 0.00 | 58 | 1015.8 |
| 20260504232908 | 75 | 147 | 0.0 | 1.0 | 0.00 | 0.00 | 0.00 | 59 | 1015.5 |
| 20260504232405 | 75 | 156 | 0.0 | 1.0 | 0.00 | 0.00 | 0.00 | 58 | 1015.5 |
| 20260504231902 | 76 | 87 | 1.0 | 1.0 | 0.00 | 0.00 | 0.00 | 56 | 1015.5 |
| 20260504231358 | 75 | 123 | 0.0 | 0.0 | 0.00 | 0.00 | 0.00 | 58 | 1015.6 |
| 20260504230854 | 75 | 220 | 1.0 | 1.0 | 0.00 | 0.00 | 0.00 | 58 | 1015.7 |
| 20260504230352 | 75 | 101 | 0.0 | 1.0 | 0.00 | 0.00 | 0.00 | 57 | 1015.7 |
| 20260504225850 | 74 | 255 | 2.0 | 2.0 | 0.00 | 0.00 | 0.00 | 60 | 1015.8 |
| 20260504225346 | 75 | 64 | 1.0 | 1.0 | 0.00 | 0.00 | 0.00 | 57 | 1015.9 |
| 20260504224844 | 75 | 62 | 0.0 | 1.0 | 0.00 | 0.00 | 0.00 | 57 | 1015.8 |
| 20260504224341 | 74 | 93 | 0.0 | 1.0 | 0.00 | 0.00 | 0.00 | 58 | 1016.0 |
| 20260504223837 | 73 | 73 | 0.0 | 1.0 | 0.00 | 0.00 | 0.00 | 60 | 1015.8 |
| 20260504223333 | 73 | 24 | 1.0 | 2.0 | 0.00 | 0.00 | 0.00 | 60 | 1016.1 |
| 20260504222830 | 74 | 86 | 0.0 | 1.0 | 0.00 | 0.00 | 0.00 | 60 | 1015.9 |
| 20260504222327 | 74 | 212 | 1.0 | 1.0 | 0.00 | 0.00 | 0.00 | 59 | 1016.1 |
| 20260504221825 | 73 | 70 | 1.0 | 1.0 | 0.00 | 0.00 | 0.00 | 59 | 1016.0 |
| 20260504221321 | 74 | 62 | 1.0 | 2.0 | 0.00 | 0.00 | 0.00 | 57 | 1016.2 |
| 20260504220818 | 73 | 167 | 1.0 | 1.0 | 0.00 | 0.00 | 0.00 | 60 | 1016.3 |
| 20260504220315 | 73 | 72 | 1.0 | 1.0 | 0.00 | 0.00 | 0.00 | 59 | 1016.4 |
| 20260504215813 | 73 | 110 | 0.0 | 1.0 | 0.00 | 0.00 | 0.00 | 59 | 1016.4 |
| 20260504215309 | 74 | 64 | 0.0 | 1.0 | 0.00 | 0.00 | 0.00 | 58 | 1016.4 |
| 20260504214805 | 73 | 62 | 0.0 | 0.0 | 0.00 | 0.00 | 0.00 | 58 | 1016.3 |
| 20260504214302 | 73 | 42 | 1.0 | 2.0 | 0.00 | 0.00 | 0.00 | 61 | 1016.4 |
| 20260504213758 | 73 | 244 | 3.0 | 3.0 | 0.00 | 0.00 | 0.00 | 59 | 1016.5 |
| 20260504213255 | 73 | 152 | 0.0 | 0.0 | 0.00 | 0.00 | 0.00 | 59 | 1016.8 |
| 20260504212752 | 72 | 105 | 1.0 | 1.0 | 0.00 | 0.00 | 0.00 | 61 | 1016.9 |
| 20260504212248 | 72 | 57 | 3.0 | 3.0 | 0.00 | 0.00 | 0.00 | 60 | 1016.7 |